Weather History for PANN - November, 2012

Change the Weather History Date:

Saturday, November 3, 2012

  Actual Average Record
Temperature  
Mean Temperature 30 °F -  
Max Temperature 48 °F 20 °F 60 °F (1970)
Min Temperature 12 °F 4 °F -11 °F (2011)
Degree Days  
Heating Degree Days 35    
Moisture  
Dew Point 9 °F    
Average Humidity 73    
Maximum Humidity 85    
Minimum Humidity 59    
Precipitation  
Precipitation 0.04 in - - ()
Sea Level Pressure  
Sea Level Pressure 29.68 in    
Wind  
Wind Speed 6 mph (NNE)    
Max Wind Speed 14 mph    
Max Gust Speed 17 mph    
Visibility 5 miles    
Events Snow    
Averages and records for this station are not official NWS values.
T = Trace of Precipitation, MM = Missing Value Source: NWS Daily Summary

Daily Weather History Graph

Daily Weather History Graph

Search for Another Location

Airport or City:

Trip Planner

Search our weather history database for the weather conditions in past years. The results will help you decide how hot, cold, wet, or windy it might be!

Date:

Astronomy

Nov. 03, 2012 Rise Set
Actual Time 9:50 AM AKDT 5:27 PM AKDT
Civil Twilight 8:55 AM AKDT 6:23 PM AKDT
Nautical Twilight 7:56 AM AKDT 7:21 PM AKDT
Astronomical Twilight 7:00 AM AKDT 8:17 PM AKDT
Moon 8:35 PM AKDT (11/3) 2:47 PM AKDT (11/3)
Length of Visible Light 9h 27m
Length of Day
7h 36m
Waning Gibbous, 79% of the Moon is Illuminated
Nov 3
Waning Gibbous
Nov 6
Last Quarter
Nov 13
New
Nov 20
First Quarter
Nov 28
Full

Hourly Weather History & Observations

Time (AKDT) Temp. Windchill Dew Point Humidity Pressure Visibility Wind Dir Wind Speed Gust Speed Precip Events Conditions
12:00 AM 12.2 °F 4.3 °F 6.8 °F 79% 29.62 in 4.0 mi NNW 4.6 mph - 0.00 in Snow Light Snow
12:19 AM 14.0 °F 6.5 °F 6.8 °F 73% 29.62 in 3.0 mi NNW 4.6 mph - 0.01 in Snow Light Snow
12:53 AM 12.9 °F 1.6 °F 6.1 °F 74% 29.66 in 7.0 mi NNW 8.1 mph - 0.01 in Snow Light Snow
1:02 AM 12.2 °F 0.7 °F 6.8 °F 79% 29.62 in 3.0 mi NNW 8.1 mph - 0.00 in Snow Light Snow
1:09 AM 12.2 °F 0.7 °F 6.8 °F 79% 29.62 in 1.8 mi NNW 8.1 mph - 0.00 in Snow Light Snow
1:53 AM 12.9 °F 3.8 °F 7.0 °F 77% 29.67 in 2.0 mi NNW 5.8 mph - 0.02 in Snow Light Snow
2:06 AM 12.2 °F 6.1 °F 6.8 °F 79% 29.63 in 1.8 mi NNW 3.5 mph - 0.00 in Snow Light Snow
2:36 AM 12.2 °F 0.7 °F 6.8 °F 79% 29.63 in 2.0 mi NNW 8.1 mph - 0.01 in Snow Light Snow
2:53 AM 12.9 °F 2.6 °F 7.0 °F 77% 29.67 in 3.0 mi NNW 6.9 mph - 0.01 in Snow Light Snow
3:10 AM 14.0 °F 8.2 °F 6.8 °F 73% 29.63 in 2.5 mi Variable 3.5 mph - 0.00 in Snow Light Snow
3:36 AM 15.8 °F 6.1 °F 8.6 °F 73% 29.64 in 1.8 mi Variable 6.9 mph - 0.01 in Snow Light Snow
3:45 AM 14.0 °F 5.1 °F 8.6 °F 79% 29.64 in 2.5 mi Variable 5.8 mph - 0.01 in Snow Light Snow
3:53 AM 15.1 °F 4.2 °F 8.1 °F 74% 29.67 in 3.0 mi North 8.1 mph - 0.01 in Snow Light Snow
4:03 AM 15.8 °F 6.1 °F 8.6 °F 73% 29.63 in 2.5 mi Variable 6.9 mph - 0.00 in Snow Light Snow
4:17 AM 14.0 °F - 8.6 °F 79% 29.64 in 1.5 mi Calm Calm - 0.01 in Snow Light Snow
4:35 AM 12.2 °F 4.3 °F 6.8 °F 79% 29.64 in 2.5 mi NW 4.6 mph - 0.01 in Snow Light Snow
4:50 AM 12.2 °F 4.3 °F 8.6 °F 85% 29.64 in 2.0 mi NW 4.6 mph - 0.01 in Snow Light Snow
4:53 AM 12.9 °F 6.9 °F 7.0 °F 77% 29.68 in 2.5 mi NW 3.5 mph - 0.01 in Snow Light Snow
5:02 AM 12.2 °F 4.3 °F 6.8 °F 79% 29.64 in 3.0 mi NNW 4.6 mph - 0.00 in Snow Light Snow
5:53 AM 15.1 °F 5.2 °F 8.1 °F 74% 29.69 in 3.0 mi NNE 6.9 mph - 0.01 in Snow Light Snow
6:53 AM 14.0 °F 3.9 °F 7.0 °F 74% 29.69 in 5.0 mi Variable 6.9 mph - 0.00 in Snow Light Snow
7:53 AM 15.1 °F 9.4 °F 7.0 °F 70% 29.70 in 4.0 mi NNE 3.5 mph - 0.00 in Snow Light Snow
8:53 AM 15.1 °F 7.7 °F 6.1 °F 68% 29.70 in 10.0 mi Variable 4.6 mph - 0.00 in   Overcast
9:53 AM 14.0 °F 8.2 °F 7.0 °F 74% 29.71 in 4.0 mi NNE 3.5 mph - 0.00 in Snow Light Snow
10:53 AM 14.0 °F 6.5 °F 6.1 °F 71% 29.71 in 10.0 mi NNE 4.6 mph - 0.00 in   Overcast
11:53 AM 15.1 °F 7.7 °F 7.0 °F 70% 29.72 in 10.0 mi NE 4.6 mph - 0.00 in   Overcast
12:53 PM 16.0 °F 6.3 °F 7.0 °F 68% 29.72 in 4.0 mi NE 6.9 mph - 0.00 in Snow Light Snow
1:53 PM 17.1 °F 7.6 °F 8.1 °F 68% 29.72 in 6.0 mi NNE 6.9 mph - 0.00 in   Haze
2:53 PM 18.0 °F 7.7 °F 9.0 °F 68% 29.73 in 7.0 mi NNE 8.1 mph - 0.00 in Snow Light Snow
3:53 PM 17.1 °F 8.7 °F 9.0 °F 71% 29.72 in 4.0 mi NE 5.8 mph - 0.00 in Snow Light Snow
4:14 PM 17.6 °F 8.2 °F 8.6 °F 68% 29.68 in 2.5 mi NE 6.9 mph - 0.00 in Snow Light Snow
4:22 PM 17.6 °F 6.4 °F 10.4 °F 73% 29.68 in 1.2 mi NE 9.2 mph - 0.00 in Snow Light Snow
4:53 PM 16.0 °F 5.3 °F 10.0 °F 77% 29.72 in 1.2 mi NE 8.1 mph - 0.01 in Snow Light Snow
5:10 PM 15.8 °F 6.1 °F 10.4 °F 79% 29.69 in 1.8 mi NE 6.9 mph - 0.00 in Snow Light Snow
5:19 PM 15.8 °F 5.1 °F 8.6 °F 73% 29.68 in 2.5 mi NE 8.1 mph - 0.00 in Snow Light Snow
5:35 PM 15.8 °F 2.7 °F 8.6 °F 73% 29.68 in 3.0 mi NE 11.5 mph - 0.00 in Snow Light Snow
5:53 PM 16.0 °F 3.6 °F 8.1 °F 71% 29.73 in 6.0 mi NE 10.4 mph 17.3 mph 0.01 in Snow Light Snow
6:53 PM 16.0 °F 5.3 °F 8.1 °F 71% 29.74 in 10.0 mi NNE 8.1 mph - 0.00 in   Overcast
7:53 PM 16.0 °F 5.3 °F 6.1 °F 65% 29.74 in 10.0 mi NNE 8.1 mph - N/A   Overcast
8:53 PM 15.1 °F 5.2 °F 5.0 °F 64% 29.74 in 10.0 mi NNE 6.9 mph - N/A   Overcast
9:53 PM 16.0 °F 6.3 °F 3.9 °F 59% 29.73 in 10.0 mi NNE 6.9 mph - N/A   Overcast
10:53 PM 16.0 °F 6.3 °F 3.9 °F 59% 29.73 in 10.0 mi NE 6.9 mph - N/A   Overcast
11:53 PM 16.0 °F 7.4 °F 3.9 °F 59% 29.73 in 10.0 mi NNE 5.8 mph - N/A   Overcast